www.pogodaiklimat.ru

Погода и климат >> Архив погоды >> Россия >> город Севастополь >> Севастополь


АРХИВ ПОГОДЫ в Севастополе

Время (UTC), дата Ветер
(напр.,м/с)
 
Видим.   Явления Облачность Т
(С)
Тd
(С)
f
(%)
Тe
(С)
Тes
(С)
Комфортность P
(гПа)
Po
(гПа)
Тmin
(С)
Tmax
(С)
R
(мм)
R24
(мм)
S
(см)
15 11.04 СЗ 2 20 км 8/6 600 м
[Cb cap Ac cast]
+12.5 +10.6 88 +12 +12 тепло 1011.4 1010.7 0.3
18 11.04 ЮВ 5 20 км 6/4 600 м
[Cu med, cong Ac cast]
+11.5 +10.2 92 +9 +9 по сезону 1011.7 1011.2 +13.9
21 11.04 Ю 1 20 км 10/10 1000 м
[Sc]
+11.6 +9.3 86 +11 +11 тепло 1012.7 1012.0
00 12.04 В 2 20 км 9/8 600 м
[Cu med, cong Ac cast]
+11.3 +8.9 85 +10 +10 тепло 1012.7 1012.0
03 12.04 ЮВ 2 20 км 10/10 600 м
[Sc]
+11.3 +9.6 89 +10 +10 тепло 1011.3 1010.8 +10.5
06 12.04 Ю 2 4000 м слаб. дождь 10/5 300 м
[Frnb As op]
+12.2 +10.6 90 +11 +11 тепло 1012.7 1012.0 +10.6 0.5
09 12.04 ЮВ 1 4000 м слаб. дождь 10/6 300 м
[Frnb As op]
+12.9 +10.8 87 +13 +13 тепло 1012.7 1012.0
12 12.04 Ю 4 4000 м дымка {дождь} 10/10 300 м
[St]
+11.1 +10.5 96 +9 +9 по сезону 1011.9 1011.4
15 12.04 ЮЗ 3 200 м туман ?/? +12.0 +10.9 93 +10 +10 по сезону 1014.0 1013.3 2
18 12.04 З 2 4000 м дымка {туман} 10/10 300 м
[St]
+10.9 +10.2 95 +9 +9 по сезону 1014.1 1013.6 +12.1 1
21 12.04 З 2 20 км 10/10 300 м
[Sc]
+11.3 +9.6 89 +10 +10 тепло 1015.4 1014.7
00 13.04 ЮЗ 2 20 км 10/10 300 м
[St]
+11.3 +9.0 86 +10 +10 тепло 1015.4 1014.7
03 13.04 ЮВ 2 4000 м в посл. час дождь 10/10 300 м
[St]
+10.3 +9.7 96 +9 +9 тепло 1014.0 1013.5 +10.0 0.1
06 13.04 В 2 4000 м слаб. морось {дождь} 10/10 300 м
[St]
+11.5 +10.2 92 +10 +10 тепло 1015.4 1014.7 +11.1 0.3
09 13.04 ЮЗ 4 4000 м слаб. дождь {морось} 10/6 300 м
[Frnb As op]
+12.6 +10.8 89 +11 +11 тепло 1015.4 1014.7
12 13.04 ЮВ 3 20 км {дождь, морось} 10/3 600 м
[Cu med, cong Ac lent Cs]
+13.2 +11.7 91 +12 +15 тепло 1015.1 1014.6
15 13.04 ЮЗ 4 20 км 10/0
[Ac cast Cs]
+16.4 +10.3 67 +16 +16 тепло 1015.4 1014.7 0.6
18 13.04 ЮВ 6-10
{10}
20 км 9/0
[Ac cast Ci fib]
+13.5 +10.3 81 +11 +11 тепло 1014.0 1013.5 +15.6 1
21 13.04 штиль 0
{10}
20 км 9/0
[Ac cast]
+12.6 +10.0 84 +12 +12 тепло 1014.0 1013.3
00 14.04 СЗ 2 4000 м слаб. морось 10/10 300 м
[St]
+11.5 +10.8 95 +10 +10 тепло 1012.6 1012.1
03 14.04 С 2 4000 м слаб. дождь {морось} 10/5 300 м
[Frnb As op]
+11.1 +10.5 96 +10 +10 тепло 1010.8 1010.3 +10.5 2
06 14.04 В 2 4000 м слаб. дождь {морось} 10/6 300 м
[Frnb As op]
+12.3 +11.2 93 +11 +11 тепло 1010.0 1009.3 +11.3 4
09 14.04 З 2 4000 м слаб. дождь 10/5 300 м
[Frnb As op]
+12.6 +11.3 92 +12 +12 тепло 1010.0 1009.3
12 14.04 З 1 4000 м слаб. дождь 10/5 300 м
[Frnb As op]
+11.7 +11.1 96 +11 +13 по сезону 1008.3 1007.8
15 14.04 ЮВ 7-10
{10}
4000 м слаб. морось {дождь} 10/10 300 м
[St]
+11.4 +11.0 97 +8 +8 по сезону 1007.5 1007.0 22
18 14.04 ЮВ 2
{10}
4000 м дымка {дождь} 10/10 300 м
[Sc]
+11.1 +10.5 96 +10 +10 тепло 1008.1 1007.6 +12.1 19
21 14.04 Ю 2 500 м туман 10/10 300 м
[St]
+12.3 +11.4 94 +11 +11 тепло 1008.7 1008.0
00 15.04 ЮЗ 3 4000 м дымка {туман} 10/10 300 м
[St]
+10.3 +10.1 99 +8 +8 тепло 1007.2 1006.7
03 15.04 ЮЗ 5 4000 м дымка 10/10 300 м
[St]
+11.4 +10.6 95 +9 +9 тепло 1007.4 1006.7 +11.4 0.4
06 15.04 З 6
{11}
4000 м дымка 10/10 300 м
[St]
+9.4 +8.8 96 +6 +6 по сезону 1008.9 1008.4 +9.0
09 15.04 З 5
{10}
20 км 10/10 600 м
[Sc]
+9.2 +7.6 90 +6 +6 по сезону 1011.4 1010.7
12 15.04 СЗ 4 20 км 10/10 600 м
[Sc]
+9.0 +7.3 89 +6 +6 прохладно 1012.7 1012.0
15 15.04 СЗ 5 4000 м слаб. морось 10/10 300 м
[St]
+7.9 +6.4 90 +4 +4 прохладно 1011.9 1011.4 0.0
18 15.04 СЗ 6 4000 м слаб. морось 10/10 300 м
[St]
+7.5 +6.0 90 +3 +3 прохладно 1013.2 1012.7 +10.7 0.6
21 15.04 СЗ 3 4000 м слаб. дождь {морось} 10/6 300 м
[Frnb As op]
+7.6 +6.1 90 +5 +5 по сезону 1015.4 1014.7
00 16.04 СЗ 4 4000 м слаб. дождь {морось} 10/5 300 м
[Frnb As op]
+7.5 +6.0 90 +4 +4 по сезону 1014.1 1013.6
03 16.04 СЗ 4 4000 м дымка {дождь} 10/10 300 м
[St]
+7.9 +6.0 88 +5 +5 по сезону 1013.9 1013.4 +6.8 3
06 16.04 Ю 3 20 км {дождь} 9/8 600 м
[Cb cap Ac cast]
+9.3 +5.5 77 +7 +7 по сезону 1015.4 1014.7 +7.1 1
09 16.04 ЮЗ 4 20 км 6/4 600 м
[Cu med, cong Ac cast]
+10.2 +3.2 62 +8 +9 по сезону 1015.4 1014.7
12 16.04 ЮЗ 4 20 км 8/8 600 м
[Cu med, cong]
+10.0 +1.1 54 +8 +9 по сезону 1015.4 1014.7
15 16.04 СЗ 3 20 км 10/10 600 м
[Sc]
+8.7 +2.5 65 +6 +6 прохладно 1015.4 1014.7
18 16.04 З 2 20 км 10/10 600 м
[Sc]
+8.1 +5.2 82 +6 +6 по сезону 1016.0 1015.5 +11.7
21 16.04 В 2 20 км 10/10 600 м
[Sc]
+6.8 +4.5 85 +5 +5 по сезону 1016.7 1016.0
00 17.04 В 3 20 км 10/10 1000 м
[Sc]
+5.7 +4.0 89 +2 +2 прохладно 1016.7 1016.0
03 17.04 В 2 20 км 10/10 600 м
[Cb cap]
+4.9 +3.6 91 +2 +2 прохладно 1016.7 1016.0 +4.9
06 17.04 В 2 20 км 8/5 600 м
[Cb cap Ac cast]
+9.2 +5.2 76 +8 +11 по сезону 1016.7 1016.0 +4.7
09 17.04 С 5 20 км 9/8 600 м
[Cb cap Ac cast]
+9.8 +5.2 73 +7 +7 по сезону 1018.0 1017.3
12 17.04 С 5 20 км 10/0
[Ac lent Ci]
+9.9 +5.5 74 +7 +7 прохладно 1018.0 1017.3
15 17.04 С 5 10 км 10/8 600 м
[Cb cap Ac und]
+9.6 +6.9 83 +6 +6 прохладно 1019.4 1018.7
18 17.04 С 6
{10}
4000 м слаб. морось 10/10 300 м
[St]
+9.9 +8.9 93 +6 +6 по сезону 1018.7 1018.2 +11.4 0.0
21 17.04 СВ 3 20 км {морось} 10/10 600 м
[Sc]
+9.7 +8.0 89 +7 +7 по сезону 1019.4 1018.7
00 18.04 СВ 6-10
{10}
20 км {морось} 9/6 600 м
[Sc Ac cast]
+9.5 +4.9 73 +6 +6 по сезону 1020.7 1020.0
03 18.04 СВ 5-11
{11}
20 км 10/10 600 м
[Cb cap]
+8.8 +4.4 74 +5 +5 по сезону 1020.7 1020.0 +8.6 0.0
06 18.04 СВ 6-11
{11}
20 км {ливн. осадки} 10/8 600 м
[Cb cap Ac lent]
+8.4 +5.0 79 +4 +5 прохладно 1022.0 1021.3 +8.0 0.0
09 18.04 СВ 9-12
{12}
20 км в посл. час ливневой дождь 10/10 600 м
[Cb cap]
+8.6 +3.8 72 +4 +4 холодно 1023.4 1022.7
12 18.04 СВ 9-12
{14}
20 км {ливн. осадки} 9/6 600 м
[Cb cap Ac cast]
+8.7 +3.3 69 +4 +4 холодно 1021.8 1021.3

 

Местоположение метеостанции Севастополь (город Севастополь, Россия): широта 44.62 долгота 33.53 высота над уровнем моря 6 м.

В архиве по умолчанию представлена погода в Севастополе за последнюю неделю. Архивные данные за месяц целиком и за предыдущие месяцы, начиная с января 2011 года, Вы можете получить, выбрав интересующий диапазон дат из раскрывающегося списка и нажав кнопку "Ввод!".


*Определитесь, кто Вы:
робот инопланетянин человек

Внимание! Время в таблицах - всемирное. Для получения местного времени необходимо прибавить поправку, которая равна 3 ч.

Смотрите также архив погоды в соседних городах и на ближайших метеорологических станциях:

Погода в Херсонесском Маяке (город Севастополь, Россия) (13 км)
Погода в Почтовом (Крым, Россия) (41 км)
Погода на Ай-Петри (Крым, Россия) (47 км)
Погода в Ялте (Крым, Россия) (53 км)
Погода в Симферополе (Крым, Россия) (57 км)
Погода в Никитском саду (Крым, Россия) (58 км)
Погода в Симферополе город (Крым, Россия) (59 км)
Погода в Евпатории (Крым, Россия) (64 км)
Погода на Ангарском Перевале (Крым, Россия) (66 км)
Погода в Алуште (Крым, Россия) (69 км)

Пояснения к столбцам:

Ветер - указаны скорость ветра в м/с - средняя за 10 мин, порывы в срок и между сроками (в фигурных скобках) и направление, откуда дует ветер: С - северный, СВ - северо-восточный, В - восточный, ЮВ - юго-восточный, Ю - южный, ЮЗ - юго-западный, З - западный, СЗ - северо-западный.
Видимость - горизонтальная дальность видимости в метрах или километрах. При видимости от 1 до 10 км при отсутствии осадков обычно наблюдается дымка, при ухудшении видимости до 1 км и менее - туман. В сухую погоду видимость может ухудшаться дымом, пылью или мглою.
Явления - указаны атмосферные явления, наблюдавшиеся в срок или в последний час перед сроком; фигурными скобками обозначены явления, наблюдавшиеся между сроками (за 1-3 часа до срока); квадратными скобками обозначены град или гололедные отложения с указанием их диаметра в мм.
Облачность - указаны через наклонную черту общая и нижняя облачность в баллах и высота нижней границы облаков в метрах; квадратными скобками обозначены формы облаков: Ci - перистые, Cs - перисто-слоистые, Cc - перисто-кучевые, Ac - высококучевые, As - высокослоистые, Sc - слоисто-кучевые, Ns - слоисто-дождевые, Cu - кучевые, Cb - кучево-дождевые. Подробнее классификацию облаков см. в Атласе облаков (PDF).
T - Температура воздуха - температура, измеренная на высоте 2 м над землей.
Td - Температура точки росы - температура, при понижении до которой содержащийся в воздухе водяной пар достигнет насыщения.
f - Относительная влажность воздуха - влажноcть воздуха, измеренная на высоте 2 м над землей.
Te - Эффективная температура - температура, которую ощущает одетый по сезону человек в тени. Характеристика душности погоды. При расчете учитывается влияние влажности воздуха и скорости ветра на теплоощущения человека.
Tes - Эффективная температура на солнце - температура, которую ощущает человек, с поправкой на солнечный нагрев. Характеристика знойности погоды. Зависит от высоты солнца над горизонтом, облачности и скорости ветра. Ночью, в пасмурную погоду, а также при ветре 12 м/с и более поправка равна нулю.
P - Атмосферное давление - приведенное к уровню моря атмосферное давление.
Po - Атмосферное давление - измеренное на уровне метеостанции атмосферное давление.
Tmin - Минимальная температура - минимум температуры воздуха на высоте 2 м над землей.
Tmax - Максимальная температура - максимум температуры воздуха на высоте 2 м над землей.
R - Количество осадков - Количество выпавших осадков за период времени, мм. При наведении курсора мыши на число - период времени, за который выпало указанное количество осадков.
R24 - Количество осадков - Количество выпавших осадков за 24 часа, мм.
S - Снежный покров - Высота снежного покрова, см. При наведении курсора мыши на число - состояние снежного покрова и степень покрытия местности в баллах.